{"data":{"norad_id":40617,"epoch":"2026-09-20T01:46:23.179296Z","epoch_age_seconds":58818,"freshness":"FRESH","line1":"1 40617U 15023A   26263.07387939  .00000100  00000+0  00000+0 0  9993","line2":"2 40617   0.0118 121.4167 0003029  51.3804 264.8122  1.00270744 41798","mean_motion":1.00270744,"eccentricity":0.0003029,"inclination_deg":0.0118,"raan_deg":121.4167,"arg_perigee_deg":51.3804,"mean_anomaly_deg":264.8122,"bstar":0,"rev_number":4179,"period_min":1436.1118134318,"perigee_km":35774.115008098,"apogee_km":35799.658579512,"semimajor_km":42165.023793805,"source":"CELESTRAK","updated_at":"2026-09-20T09:00:35.216685Z"}}